Time,TemperatureF,DewpointF,PressureIn,WindDirection,WindDirectionDegrees,WindSpeedMPH,WindSpeedGustMPH,Humidity,HourlyPrecipIn,Conditions,Clouds,dailyrainin,SoftwareType,DateUTC
2013-02-02 08:22:00,17.6,-13.9,29.80,NNE,14,0.0,0.0,23,0.00,,CLR,0.00,VWS V14.00,2013-02-02 13:22:00,
2013-02-02 08:23:00,17.6,-13.9,29.80,NE,36,0.0,0.0,23,0.00,,CLR,0.00,VWS V14.00,2013-02-02 13:23:00,
2013-02-02 08:28:00,18.0,-13.6,29.80,ESE,103,0.0,0.0,23,0.00,,CLR,0.00,VWS V14.00,2013-02-02 13:28:00,
2013-02-02 08:33:00,18.1,-13.4,29.80,NE,46,0.0,3.1,23,0.00,,CLR,0.00,VWS V14.00,2013-02-02 13:33:00,
2013-02-02 08:38:00,18.3,-13.3,29.80,NE,46,0.0,3.1,23,0.00,,CLR,0.00,VWS V14.00,2013-02-02 13:38:00,
2013-02-02 08:43:00,18.7,-13.0,29.80,NE,39,0.0,2.7,23,0.00,,CLR,0.00,VWS V14.00,2013-02-02 13:43:00,
2013-02-02 08:48:00,19.2,-12.5,29.77,SE,130,0.0,2.7,23,0.00,,CLR,0.00,VWS V14.00,2013-02-02 13:48:00,
2013-02-02 08:53:00,19.6,-13.1,29.77,ENE,78,0.0,2.7,22,0.00,,CLR,0.00,VWS V14.00,2013-02-02 13:53:00,
2013-02-02 08:58:00,20.1,-12.6,29.77,WNW,301,0.0,2.7,22,0.00,,CLR,0.00,VWS V14.00,2013-02-02 13:58:00,
2013-02-02 09:03:00,20.5,-12.3,29.77,NE,54,0.0,0.0,22,0.00,,CLR,0.00,VWS V14.00,2013-02-02 14:03:00,
2013-02-02 09:07:00,20.7,-12.2,29.77,SSE,154,3.6,3.6,22,0.00,,CLR,0.00,VWS V14.00,2013-02-02 14:07:00,
2013-02-02 09:08:00,20.7,-12.2,29.77,SSE,154,3.6,3.6,22,0.00,,CLR,0.00,VWS V14.00,2013-02-02 14:08:00,
2013-02-02 09:13:00,20.7,-12.2,29.77,SSE,154,3.6,3.6,22,0.00,,CLR,0.00,VWS V14.00,2013-02-02 14:13:00,
2013-02-02 09:53:00,22.3,-10.8,29.77,SE,130,5.4,5.4,22,0.00,,CLR,0.00,VWS V14.00,2013-02-02 14:53:00,
2013-02-02 09:58:00,22.3,-10.8,29.77,ESE,119,4.9,6.3,22,0.00,,CLR,0.00,VWS V14.00,2013-02-02 14:58:00,
2013-02-02 10:03:00,22.6,-10.5,29.77,SE,131,4.9,4.9,22,0.00,,CLR,0.00,VWS V14.00,2013-02-02 15:03:00,
2013-02-02 10:08:00,22.8,-10.3,29.77,SE,140,2.2,5.8,22,0.00,,CLR,0.00,VWS V14.00,2013-02-02 15:08:00,
2013-02-02 10:13:00,23.5,-9.7,29.77,ESE,106,0.0,5.8,22,0.00,,CLR,0.00,VWS V14.00,2013-02-02 15:13:00,
2013-02-02 10:18:00,24.1,-9.2,29.74,ESE,119,2.7,5.8,22,0.00,,CLR,0.00,VWS V14.00,2013-02-02 15:18:00,
2013-02-02 10:23:00,24.4,-8.9,29.74,South,169,0.0,4.0,22,0.00,,CLR,0.00,VWS V14.00,2013-02-02 15:23:00,
2013-02-02 10:28:00,24.6,-8.8,29.74,SE,129,0.0,6.3,22,0.00,,CLR,0.00,VWS V14.00,2013-02-02 15:28:00,
2013-02-02 10:33:00,24.8,-8.6,29.74,SE,145,2.2,6.3,22,0.00,,CLR,0.00,VWS V14.00,2013-02-02 15:33:00,
2013-02-02 10:38:00,25.3,-9.1,29.74,NNW,348,2.2,6.3,21,0.00,,CLR,0.00,VWS V14.00,2013-02-02 15:38:00,
2013-02-02 10:43:00,25.7,-8.8,29.74,SSW,210,5.8,5.8,21,0.00,,CLR,0.00,VWS V14.00,2013-02-02 15:43:00,
2013-02-02 10:48:00,25.3,-9.1,29.74,SE,129,4.0,8.1,21,0.00,,CLR,0.00,VWS V14.00,2013-02-02 15:48:00,
2013-02-02 10:53:00,25.2,-9.3,29.74,North,0,0.0,8.7,21,0.00,,CLR,0.00,VWS V14.00,2013-02-02 15:53:00,
2013-02-02 10:58:00,25.9,-8.7,29.74,SE,134,4.0,8.7,21,0.00,,CLR,0.00,VWS V14.00,2013-02-02 15:58:00,
2013-02-02 11:03:00,26.4,-8.2,29.74,SSE,155,3.6,5.8,21,0.00,,CLR,0.00,VWS V14.00,2013-02-02 16:03:00,
2013-02-02 11:08:00,26.6,-8.1,29.74,ENE,77,0.0,6.3,21,0.00,,CLR,0.00,VWS V14.00,2013-02-02 16:08:00,
2013-02-02 11:13:00,26.6,-8.1,29.74,SSE,153,4.5,6.3,21,0.00,,CLR,0.00,VWS V14.00,2013-02-02 16:13:00,
2013-02-02 11:18:00,26.6,-8.1,29.71,SE,124,3.1,6.3,21,0.00,,CLR,0.00,VWS V14.00,2013-02-02 16:18:00,
2013-02-02 11:23:00,26.1,-8.5,29.71,East,91,2.7,6.3,21,0.00,,CLR,0.00,VWS V14.00,2013-02-02 16:23:00,
2013-02-02 11:28:00,26.6,-8.1,29.71,ESE,104,0.0,6.3,21,0.00,,CLR,0.00,VWS V14.00,2013-02-02 16:28:00,
2013-02-02 11:33:00,27.1,-7.6,29.71,SE,136,4.0,7.6,21,0.00,,CLR,0.00,VWS V14.00,2013-02-02 16:33:00,
2013-02-02 11:38:00,27.0,-7.8,29.71,ENE,70,4.0,11.0,21,0.00,,CLR,0.00,VWS V14.00,2013-02-02 16:38:00,
2013-02-02 11:43:00,27.1,-7.6,29.71,East,79,3.1,8.1,21,0.00,,CLR,0.00,VWS V14.00,2013-02-02 16:43:00,
2013-02-02 11:48:00,27.3,-7.4,29.71,ESE,115,8.1,12.8,21,0.00,,CLR,0.00,VWS V14.00,2013-02-02 16:48:00,
2013-02-02 11:53:00,26.8,-7.9,29.71,ESE,118,4.0,12.8,21,0.00,,CLR,0.00,VWS V14.00,2013-02-02 16:53:00,
2013-02-02 11:58:00,26.4,-8.2,29.71,East,82,2.7,12.8,21,0.00,,CLR,0.00,VWS V14.00,2013-02-02 16:58:00,
2013-02-02 12:03:00,26.6,-8.1,29.68,ESE,102,4.9,6.3,21,0.00,,CLR,0.00,VWS V14.00,2013-02-02 17:03:00,
2013-02-02 12:08:00,26.8,-7.9,29.68,SE,124,3.1,9.2,21,0.00,,CLR,0.00,VWS V14.00,2013-02-02 17:08:00,
2013-02-02 12:13:00,27.5,-7.3,29.68,SSE,157,4.0,9.2,21,0.00,,CLR,0.00,VWS V14.00,2013-02-02 17:13:00,
2013-02-02 12:18:00,28.0,-6.8,29.68,SSE,154,8.1,9.2,21,0.00,,CLR,0.00,VWS V14.00,2013-02-02 17:18:00,
2013-02-02 12:23:00,27.5,-7.3,29.68,East,97,4.9,12.3,21,0.00,,CLR,0.00,VWS V14.00,2013-02-02 17:23:00,
2013-02-02 12:28:00,27.3,-7.4,29.68,SE,146,4.0,15.9,21,0.00,,CLR,0.00,VWS V14.00,2013-02-02 17:28:00,
2013-02-02 12:33:00,27.5,-7.3,29.68,East,79,3.1,15.9,21,0.00,,CLR,0.00,VWS V14.00,2013-02-02 17:33:00,
2013-02-02 12:38:00,27.7,-7.2,29.68,SSE,161,10.5,15.9,21,0.00,,CLR,0.00,VWS V14.00,2013-02-02 17:38:00,
2013-02-02 12:43:00,27.3,-7.4,29.68,ESE,122,8.7,8.7,21,0.00,,CLR,0.00,VWS V14.00,2013-02-02 17:43:00,
2013-02-02 12:48:00,26.8,-7.9,29.68,ESE,116,4.0,9.2,21,0.00,,CLR,0.00,VWS V14.00,2013-02-02 17:48:00,
2013-02-02 12:53:00,26.8,-7.9,29.68,NE,47,3.6,9.2,21,0.00,,CLR,0.00,VWS V14.00,2013-02-02 17:53:00,
2013-02-02 12:58:00,26.6,-8.1,29.68,SE,139,6.3,9.2,21,0.00,,CLR,0.00,VWS V14.00,2013-02-02 17:58:00,
2013-02-02 13:03:00,26.6,-8.1,29.65,SW,224,4.0,8.7,21,0.00,,CLR,0.00,VWS V14.00,2013-02-02 18:03:00,
2013-02-02 13:08:00,25.9,-8.7,29.65,SSE,156,4.9,8.7,21,0.00,,CLR,0.00,VWS V14.00,2013-02-02 18:08:00,
2013-02-02 13:13:00,25.9,-8.7,29.65,ESE,120,3.6,8.7,21,0.00,,CLR,0.00,VWS V14.00,2013-02-02 18:13:00,
2013-02-02 13:18:00,25.9,-8.7,29.65,SSE,159,6.3,10.5,21,0.00,,CLR,0.00,VWS V14.00,2013-02-02 18:18:00,
2013-02-02 13:23:00,25.9,-8.7,29.65,SE,139,4.0,5.8,21,0.00,,CLR,0.00,VWS V14.00,2013-02-02 18:23:00,
2013-02-02 13:28:00,26.2,-8.4,29.65,SSE,149,7.6,12.3,21,0.00,,CLR,0.00,VWS V14.00,2013-02-02 18:28:00,
2013-02-02 13:33:00,27.1,-7.6,29.65,North,11,3.6,12.3,21,0.00,,CLR,0.00,VWS V14.00,2013-02-02 18:33:00,
2013-02-02 13:38:00,27.3,-7.4,29.65,SE,146,2.7,12.3,21,0.00,,CLR,0.00,VWS V14.00,2013-02-02 18:38:00,
2013-02-02 13:43:00,27.9,-7.0,29.65,ESE,110,2.7,3.6,21,0.00,,CLR,0.00,VWS V14.00,2013-02-02 18:43:00,
2013-02-02 13:48:00,28.0,-6.8,29.65,NW,308,6.3,6.3,21,0.00,,CLR,0.00,VWS V14.00,2013-02-02 18:48:00,
2013-02-02 13:53:00,28.2,-6.7,29.65,East,91,6.3,11.0,21,0.00,,CLR,0.00,VWS V14.00,2013-02-02 18:53:00,
2013-02-02 13:58:00,27.5,-7.3,29.65,SE,137,0.0,11.0,21,0.00,,CLR,0.00,VWS V14.00,2013-02-02 18:58:00,
2013-02-02 14:03:00,27.0,-7.8,29.65,North,9,7.2,8.3,21,0.00,,OVC075,0.00,VWS V14.00,2013-02-02 19:03:00,
2013-02-02 14:08:00,27.0,-7.8,29.62,SSE,163,0.0,8.3,21,0.00,,OVC075,0.00,VWS V14.00,2013-02-02 19:08:00,
2013-02-02 14:13:00,27.0,-7.8,29.62,East,93,5.8,8.3,21,0.00,,OVC075,0.00,VWS V14.00,2013-02-02 19:13:00,
2013-02-02 14:18:00,26.4,-8.2,29.62,South,180,5.8,8.3,21,0.00,,OVC075,0.00,VWS V14.00,2013-02-02 19:18:00,
2013-02-02 14:23:00,26.2,-8.4,29.62,ESE,122,2.7,6.3,21,0.00,,OVC075,0.00,VWS V14.00,2013-02-02 19:23:00,
2013-02-02 14:29:00,26.2,-8.4,29.62,SE,142,3.6,8.1,21,0.00,,OVC075,0.00,VWS V14.00,2013-02-02 19:29:00,
2013-02-02 14:34:00,26.4,-8.2,29.62,SE,141,8.3,8.3,21,0.00,,OVC075,0.00,VWS V14.00,2013-02-02 19:34:00,
2013-02-02 14:39:00,26.2,-8.4,29.62,SSE,153,4.0,8.3,21,0.00,,OVC075,0.00,VWS V14.00,2013-02-02 19:39:00,
2013-02-02 14:44:00,26.2,-8.4,29.62,SE,136,5.4,5.8,21,0.00,,OVC075,0.00,VWS V14.00,2013-02-02 19:44:00,
2013-02-02 14:49:00,26.2,-8.4,29.62,WNW,292,2.7,5.8,21,0.00,,OVC075,0.00,VWS V14.00,2013-02-02 19:49:00,
2013-02-02 14:54:00,26.4,-8.2,29.62,SE,124,0.0,5.8,21,0.00,,OVC075,0.00,VWS V14.00,2013-02-02 19:54:00,
2013-02-02 14:59:00,26.4,-8.2,29.62,ESE,115,3.1,5.8,21,0.00,,OVC075,0.00,VWS V14.00,2013-02-02 19:59:00,
2013-02-02 15:04:00,26.4,-8.2,29.62,ENE,64,5.8,5.8,21,0.00,,OVC070,0.00,VWS V14.00,2013-02-02 20:04:00,
2013-02-02 15:09:00,26.2,-8.4,29.62,SSE,154,0.0,5.8,21,0.00,,OVC070,0.00,VWS V14.00,2013-02-02 20:09:00,
2013-02-02 15:14:00,25.9,-8.7,29.62,WNW,302,0.0,7.2,21,0.00,,OVC070,0.00,VWS V14.00,2013-02-02 20:14:00,
2013-02-02 15:19:00,25.5,-9.0,29.62,SE,139,2.2,7.2,21,0.00,,OVC070,0.00,VWS V14.00,2013-02-02 20:19:00,
2013-02-02 15:24:00,25.3,-9.1,29.62,ESE,110,3.1,4.0,21,0.00,,OVC070,0.00,VWS V14.00,2013-02-02 20:24:00,
2013-02-02 15:29:00,25.2,-9.3,29.62,SSE,157,2.7,6.3,21,0.00,,OVC070,0.00,VWS V14.00,2013-02-02 20:29:00,
2013-02-02 15:34:00,24.8,-8.6,29.62,North,357,0.0,6.3,22,0.00,,OVC070,0.00,VWS V14.00,2013-02-02 20:34:00,
2013-02-02 15:39:00,24.6,-8.8,29.62,WSW,250,3.1,6.3,22,0.00,,OVC070,0.00,VWS V14.00,2013-02-02 20:39:00,
2013-02-02 15:44:00,24.4,-8.9,29.62,WNW,301,3.1,5.4,22,0.00,,OVC070,0.00,VWS V14.00,2013-02-02 20:44:00,
2013-02-02 15:49:00,24.4,-8.9,29.62,SE,124,2.7,5.4,22,0.00,,OVC070,0.00,VWS V14.00,2013-02-02 20:49:00,
2013-02-02 15:54:00,24.3,-9.1,29.62,North,2,3.1,5.4,22,0.00,,OVC070,0.00,VWS V14.00,2013-02-02 20:54:00,
2013-02-02 15:59:00,24.3,-9.1,29.62,ENE,72,0.0,5.4,22,0.00,,OVC070,0.00,VWS V14.00,2013-02-02 20:59:00,
2013-02-02 16:04:00,24.4,-8.9,29.62,ESE,110,2.2,2.2,22,0.00,,OVC065,0.00,VWS V14.00,2013-02-02 21:04:00,
2013-02-02 16:09:00,24.3,-9.1,29.62,NE,55,0.0,5.4,22,0.00,,OVC065,0.00,VWS V14.00,2013-02-02 21:09:00,
2013-02-02 16:14:00,24.3,-9.1,29.62,SSE,150,2.7,5.4,22,0.00,,OVC065,0.00,VWS V14.00,2013-02-02 21:14:00,
2013-02-02 16:19:00,24.3,-9.1,29.62,NNW,339,0.0,5.4,22,0.00,,OVC065,0.00,VWS V14.00,2013-02-02 21:19:00,
2013-02-02 16:24:00,24.3,-9.1,29.62,NE,40,0.0,3.1,22,0.00,,OVC065,0.00,VWS V14.00,2013-02-02 21:24:00,
2013-02-02 16:29:00,24.4,-8.9,29.62,NW,324,0.0,3.6,22,0.00,,OVC065,0.00,VWS V14.00,2013-02-02 21:29:00,
2013-02-02 16:34:00,24.4,-8.9,29.62,ESE,115,0.0,4.0,22,0.00,,OVC065,0.00,VWS V14.00,2013-02-02 21:34:00,
2013-02-02 16:39:00,24.4,-8.9,29.59,ESE,104,0.0,4.0,22,0.00,,OVC065,0.00,VWS V14.00,2013-02-02 21:39:00,
2013-02-02 16:44:00,24.4,-8.9,29.59,SSE,147,2.2,5.4,22,0.00,,OVC065,0.00,VWS V14.00,2013-02-02 21:44:00,
2013-02-02 16:49:00,24.4,-8.9,29.59,SE,141,3.1,5.4,22,0.00,,OVC065,0.00,VWS V14.00,2013-02-02 21:49:00,
2013-02-02 16:54:00,24.4,-8.9,29.59,East,79,4.9,5.8,22,0.00,,OVC065,0.00,VWS V14.00,2013-02-02 21:54:00,
2013-02-02 16:59:00,24.3,-9.1,29.59,East,95,0.0,5.8,22,0.00,,OVC065,0.00,VWS V14.00,2013-02-02 21:59:00,
2013-02-02 17:04:00,24.3,-9.1,29.59,SE,127,4.0,5.4,22,0.00,,OVC070,0.00,VWS V14.00,2013-02-02 22:04:00,
2013-02-02 17:09:00,24.1,-9.2,29.59,East,92,4.9,5.4,22,0.00,,OVC070,0.00,VWS V14.00,2013-02-02 22:09:00,
2013-02-02 17:14:00,23.9,-9.4,29.59,SSE,155,3.1,5.4,22,0.00,,OVC070,0.00,VWS V14.00,2013-02-02 22:14:00,
2013-02-02 17:19:00,23.5,-9.7,29.59,NW,325,2.2,5.8,22,0.00,,OVC070,0.00,VWS V14.00,2013-02-02 22:19:00,
2013-02-02 17:24:00,23.5,-9.7,29.59,North,4,2.2,7.2,22,0.00,,OVC070,0.00,VWS V14.00,2013-02-02 22:24:00,
2013-02-02 17:29:00,23.4,-9.9,29.59,ESE,103,2.7,7.2,22,0.00,,OVC070,0.00,VWS V14.00,2013-02-02 22:29:00,
2013-02-02 17:34:00,23.2,-10.0,29.59,NE,55,2.2,7.2,22,0.00,,OVC070,0.00,VWS V14.00,2013-02-02 22:34:00,
2013-02-02 17:39:00,23.0,-10.2,29.59,SSE,151,5.4,7.2,22,0.00,,OVC070,0.00,VWS V14.00,2013-02-02 22:39:00,
2013-02-02 17:44:00,22.8,-10.3,29.59,SE,136,0.0,0.0,22,0.00,,OVC070,0.00,VWS V14.00,2013-02-02 22:44:00,
2013-02-02 17:49:00,22.8,-10.3,29.59,SE,127,3.1,3.1,22,0.00,,OVC070,0.00,VWS V14.00,2013-02-02 22:49:00,
2013-02-02 17:54:00,22.6,-10.5,29.59,SSE,147,3.6,3.6,22,0.00,,OVC070,0.00,VWS V14.00,2013-02-02 22:54:00,
2013-02-02 17:59:00,22.6,-10.5,29.59,WNW,295,0.0,6.3,22,0.00,,OVC070,0.00,VWS V14.00,2013-02-02 22:59:00,
2013-02-02 18:04:00,22.3,-10.8,29.59,SSE,149,2.7,2.7,22,0.00,,OVC055,0.00,VWS V14.00,2013-02-02 23:04:00,
2013-02-02 18:09:00,22.3,-8.2,29.59,SSE,162,2.7,3.1,25,0.00,,OVC055,0.00,VWS V14.00,2013-02-02 23:09:00,
2013-02-02 18:14:00,22.3,-8.2,29.59,SSE,167,4.0,4.0,25,0.00,,OVC055,0.00,VWS V14.00,2013-02-02 23:14:00,
2013-02-02 18:19:00,21.9,-8.5,29.59,SE,146,3.1,5.4,25,0.00,,OVC055,0.00,VWS V14.00,2013-02-02 23:19:00,
2013-02-02 18:24:00,21.9,-8.5,29.59,SE,144,2.2,4.0,25,0.00,,OVC055,0.00,VWS V14.00,2013-02-02 23:24:00,
2013-02-02 18:29:00,21.9,-6.9,29.59,SSE,158,2.7,4.0,27,0.00,,OVC055,0.00,VWS V14.00,2013-02-02 23:29:00,
2013-02-02 18:34:00,21.7,-7.1,29.59,SSE,149,0.0,4.0,27,0.00,,OVC055,0.00,VWS V14.00,2013-02-02 23:34:00,
2013-02-02 18:39:00,21.6,-7.2,29.59,SSE,149,0.0,4.0,27,0.00,,OVC055,0.00,VWS V14.00,2013-02-02 23:39:00,
2013-02-02 18:44:00,21.6,-7.2,29.59,SE,136,0.0,0.0,27,0.00,,OVC055,0.00,VWS V14.00,2013-02-02 23:44:00,
2013-02-02 18:49:00,21.7,-7.1,29.59,SE,136,0.0,0.0,27,0.00,,OVC055,0.00,VWS V14.00,2013-02-02 23:49:00,
2013-02-02 18:54:00,21.7,-4.9,29.59,SE,136,0.0,0.0,30,0.00,,OVC055,0.00,VWS V14.00,2013-02-02 23:54:00,
2013-02-02 18:59:00,21.9,-4.8,29.59,SE,136,0.0,0.0,30,0.00,,OVC055,0.00,VWS V14.00,2013-02-02 23:59:00,
2013-02-02 19:04:00,21.9,-4.8,29.59,SE,136,0.0,0.0,30,0.00,,OVC050,0.00,VWS V14.00,2013-02-03 00:04:00,
2013-02-02 19:09:00,21.9,-4.8,29.59,SE,136,0.0,0.0,30,0.00,,OVC050,0.00,VWS V14.00,2013-02-03 00:09:00,
2013-02-02 19:15:00,21.7,-4.9,29.59,SE,142,0.0,0.0,30,0.00,,OVC050,0.00,VWS V14.00,2013-02-03 00:15:00,
2013-02-02 19:20:00,21.7,-4.9,29.59,SE,145,0.0,0.0,30,0.00,,OVC050,0.00,VWS V14.00,2013-02-03 00:20:00,
2013-02-02 19:25:00,21.7,-4.9,29.59,SE,145,0.0,0.0,30,0.00,,OVC050,0.00,VWS V14.00,2013-02-03 00:25:00,
2013-02-02 19:30:00,21.7,-4.9,29.59,SE,145,0.0,0.0,30,0.00,,OVC050,0.00,VWS V14.00,2013-02-03 00:30:00,
2013-02-02 19:35:00,21.7,-4.9,29.59,SE,145,0.0,0.0,30,0.00,,OVC050,0.00,VWS V14.00,2013-02-03 00:35:00,
2013-02-02 19:40:00,21.7,-4.9,29.59,SE,145,0.0,0.0,30,0.00,,OVC050,0.00,VWS V14.00,2013-02-03 00:40:00,
2013-02-02 19:45:00,21.7,-4.9,29.59,SE,145,0.0,0.0,30,0.00,,OVC050,0.00,VWS V14.00,2013-02-03 00:45:00,
2013-02-02 19:50:00,21.7,-3.6,29.59,ENE,64,0.0,0.0,32,0.00,,OVC050,0.00,VWS V14.00,2013-02-03 00:50:00,
2013-02-02 19:55:00,21.7,-3.6,29.59,SE,129,0.0,0.0,32,0.00,,,0.00,VWS V14.00,2013-02-03 00:55:00,
2013-02-02 20:00:00,21.7,-3.6,29.59,SSE,155,2.7,6.7,32,0.00,,,0.00,VWS V14.00,2013-02-03 01:00:00,
2013-02-02 20:05:00,21.7,-3.6,29.59,SE,139,3.6,3.6,32,0.00,,,0.00,VWS V14.00,2013-02-03 01:05:00,
2013-02-02 20:10:00,21.7,-3.6,29.59,SSE,156,0.0,3.6,32,0.00,,,0.00,VWS V14.00,2013-02-03 01:10:00,
2013-02-02 20:15:00,21.7,-3.6,29.59,NNW,331,0.0,3.6,32,0.00,,,0.00,VWS V14.00,2013-02-03 01:15:00,
2013-02-02 20:20:00,21.7,-3.6,29.59,SE,146,0.0,3.6,32,0.00,,,0.00,VWS V14.00,2013-02-03 01:20:00,
2013-02-02 20:25:00,21.7,-3.6,29.59,SE,135,0.0,0.0,32,0.00,,,0.00,VWS V14.00,2013-02-03 01:25:00,
2013-02-02 20:30:00,21.7,-3.6,29.59,SE,124,0.0,0.0,32,0.00,,,0.00,VWS V14.00,2013-02-03 01:30:00,
2013-02-02 20:35:00,21.7,-3.6,29.59,NNE,16,0.0,0.0,32,0.00,,,0.00,VWS V14.00,2013-02-03 01:35:00,
2013-02-02 20:40:00,21.7,-3.6,29.59,SSE,150,3.1,3.1,32,0.00,,,0.00,VWS V14.00,2013-02-03 01:40:00,
2013-02-02 20:45:00,21.7,-3.6,29.59,SSE,154,0.0,3.1,32,0.00,,,0.00,VWS V14.00,2013-02-03 01:45:00,
2013-02-02 20:50:00,21.7,-2.9,29.59,SE,130,0.0,3.1,33,0.00,,,0.00,VWS V14.00,2013-02-03 01:50:00,
2013-02-02 20:55:00,21.7,-2.9,29.59,SE,126,0.0,3.1,33,0.00,,,0.00,VWS V14.00,2013-02-03 01:55:00,
2013-02-02 21:00:00,21.7,-2.9,29.59,SE,145,0.0,3.1,33,0.00,,,0.00,VWS V14.00,2013-02-03 02:00:00,
2013-02-02 21:05:00,21.7,-2.9,29.59,East,82,0.0,0.0,33,0.00,,,0.00,VWS V14.00,2013-02-03 02:05:00,
2013-02-02 21:10:00,21.7,-2.9,29.59,SSE,155,0.0,3.1,33,0.00,,,0.00,VWS V14.00,2013-02-03 02:10:00,
2013-02-02 21:15:00,21.7,-2.9,29.59,SE,134,2.2,3.1,33,0.00,,,0.00,VWS V14.00,2013-02-03 02:15:00,
2013-02-02 21:20:00,21.7,-2.9,29.59,SE,134,0.0,3.1,33,0.00,,,0.00,VWS V14.00,2013-02-03 02:20:00,
2013-02-02 21:25:00,21.7,-2.9,29.59,SE,134,0.0,0.0,33,0.00,,,0.00,VWS V14.00,2013-02-03 02:25:00,
2013-02-02 21:30:00,21.7,-2.9,29.59,SE,134,0.0,0.0,33,0.00,,,0.00,VWS V14.00,2013-02-03 02:30:00,
2013-02-02 21:35:00,21.7,-2.9,29.59,SE,134,0.0,0.0,33,0.00,,,0.00,VWS V14.00,2013-02-03 02:35:00,
2013-02-02 21:40:00,21.7,-2.9,29.59,SE,134,0.0,0.0,33,0.00,,,0.00,VWS V14.00,2013-02-03 02:40:00,
2013-02-02 21:45:00,21.7,-2.3,29.59,SE,135,0.0,0.0,34,0.00,,,0.00,VWS V14.00,2013-02-03 02:45:00,
2013-02-02 21:50:00,21.7,-2.3,29.59,SE,134,0.0,0.0,34,0.00,,,0.00,VWS V14.00,2013-02-03 02:50:00,
2013-02-02 21:55:00,21.7,-2.3,29.59,SE,134,0.0,0.0,34,0.00,,,0.00,VWS V14.00,2013-02-03 02:55:00,
2013-02-02 22:00:00,21.7,-2.3,29.59,SE,137,0.0,0.0,34,0.00,,,0.00,VWS V14.00,2013-02-03 03:00:00,
2013-02-02 22:05:00,21.7,-2.3,29.59,SE,137,0.0,0.0,34,0.00,,,0.00,VWS V14.00,2013-02-03 03:05:00,
2013-02-02 22:10:00,21.7,-2.3,29.59,SE,137,0.0,0.0,34,0.00,,,0.00,VWS V14.00,2013-02-03 03:10:00,
2013-02-02 22:15:00,21.7,-2.3,29.59,SE,137,0.0,0.0,34,0.00,,,0.00,VWS V14.00,2013-02-03 03:15:00,
2013-02-02 22:20:00,21.7,-2.3,29.59,SE,137,0.0,0.0,34,0.00,,,0.00,VWS V14.00,2013-02-03 03:20:00,
2013-02-02 22:25:00,21.7,-2.3,29.59,SE,137,0.0,0.0,34,0.00,,,0.00,VWS V14.00,2013-02-03 03:25:00,
2013-02-02 22:30:00,21.7,-2.3,29.59,SE,137,0.0,0.0,34,0.00,,,0.00,VWS V14.00,2013-02-03 03:30:00,
2013-02-02 22:35:00,21.7,-1.7,29.59,SE,134,0.0,2.2,35,0.00,,,0.00,VWS V14.00,2013-02-03 03:35:00,
2013-02-02 22:40:00,21.7,-1.7,29.59,SE,134,0.0,0.0,35,0.00,,,0.00,VWS V14.00,2013-02-03 03:40:00,
2013-02-02 22:45:00,21.7,-1.7,29.59,SSE,162,0.0,0.0,35,0.00,,,0.00,VWS V14.00,2013-02-03 03:45:00,
2013-02-02 22:50:00,21.7,-1.7,29.56,SSE,162,0.0,0.0,35,0.00,,,0.00,VWS V14.00,2013-02-03 03:50:00,
2013-02-02 22:55:00,21.7,-1.7,29.56,SSE,162,0.0,0.0,35,0.00,,,0.00,VWS V14.00,2013-02-03 03:55:00,
2013-02-02 23:00:00,21.9,-1.5,29.56,SSE,162,0.0,0.0,35,0.00,,,0.00,VWS V14.00,2013-02-03 04:00:00,
2013-02-02 23:05:00,21.9,-0.9,29.56,SSE,162,0.0,0.0,36,0.00,,,0.00,VWS V14.00,2013-02-03 04:05:00,
2013-02-02 23:10:00,21.9,-0.9,29.56,SSE,162,0.0,0.0,36,0.00,,,0.00,VWS V14.00,2013-02-03 04:10:00,
2013-02-02 23:15:00,21.9,-0.9,29.56,SSE,148,2.2,3.1,36,0.00,,,0.00,VWS V14.00,2013-02-03 04:15:00,
2013-02-02 23:20:00,21.9,-0.9,29.56,SSE,148,0.0,0.0,36,0.00,,,0.00,VWS V14.00,2013-02-03 04:20:00,
2013-02-02 23:25:00,21.9,-0.9,29.56,SSE,148,0.0,0.0,36,0.00,,,0.00,VWS V14.00,2013-02-03 04:25:00,
2013-02-02 23:30:00,21.9,-0.9,29.56,SSE,148,0.0,0.0,36,0.00,,,0.00,VWS V14.00,2013-02-03 04:30:00,
2013-02-02 23:35:00,21.9,-0.9,29.56,SSE,148,0.0,0.0,36,0.00,,,0.00,VWS V14.00,2013-02-03 04:35:00,
2013-02-02 23:40:00,21.9,-0.9,29.56,SSE,148,0.0,0.0,36,0.00,,,0.00,VWS V14.00,2013-02-03 04:40:00,
2013-02-02 23:45:00,21.9,-0.9,29.56,SSE,148,0.0,0.0,36,0.00,,,0.00,VWS V14.00,2013-02-03 04:45:00,
2013-02-02 23:50:00,21.9,-0.9,29.56,SSE,148,0.0,0.0,36,0.00,,,0.00,VWS V14.00,2013-02-03 04:50:00,
2013-02-02 23:55:00,21.9,-0.9,29.56,SSE,148,0.0,0.0,36,0.00,,,0.00,VWS V14.00,2013-02-03 04:55:00,